| time (UTC) | temp F | wind direction | speed MPH | gust MPH | rain 1hr in | rain 24hr in | rain mn in | humidity % | barometer mb |
| 20260506090211 | 59 | 196 | 3.0 | 0.0 | 0.00 | 0.00 | 0.00 | 76 | 1006.8 |
| 20260506083211 | 56 | 355 | 2.0 | 0.0 | 0.00 | 0.00 | 0.00 | 81 | 1006.6 |
| 20260506080212 | 55 | 32 | 3.0 | 0.0 | 0.00 | 0.00 | 0.00 | 82 | 1006.6 |
| 20260506073211 | 55 | 219 | 1.0 | 0.0 | 0.00 | 0.00 | 0.00 | 84 | 1006.9 |
| 20260506070212 | 54 | 204 | 4.0 | 0.0 | 0.00 | 0.00 | 0.00 | 86 | 1007.1 |
| 20260506060210 | 51 | 209 | 3.0 | 0.0 | 0.00 | 0.00 | 0.00 | 92 | 1006.9 |
| 20260506050211 | 48 | 129 | 3.0 | 0.0 | 0.00 | 0.00 | 0.00 | 95 | 1007.3 |
| 20260506043211 | 47 | 182 | 7.0 | 0.0 | 0.00 | 0.00 | 0.00 | 95 | 1007.5 |
| 20260506040211 | 47 | 232 | 2.0 | 0.0 | 0.00 | 0.00 | 0.00 | 94 | 1007.8 |
| 20260506033211 | 47 | 181 | 6.0 | 0.0 | 0.00 | 0.00 | 0.00 | 95 | 1008.0 |
| 20260506030212 | 47 | 200 | 6.0 | 0.0 | 0.00 | 0.00 | 0.00 | 95 | 1008.3 |
| 20260506023211 | 48 | 179 | 6.0 | 0.0 | 0.00 | 0.00 | 0.00 | 95 | 1008.4 |
| 20260506020212 | 49 | 160 | 7.0 | 0.0 | 0.00 | 0.00 | 0.00 | 95 | 1008.7 |
| 20260506013211 | 49 | 184 | 6.0 | 0.0 | 0.00 | 0.00 | 0.00 | 95 | 1008.8 |
| 20260506010212 | 50 | 175 | 7.0 | 0.0 | 0.00 | 0.00 | 0.00 | 95 | 1009.1 |
| 20260506003209 | 50 | 225 | 4.0 | 0.0 | 0.00 | 0.00 | 0.00 | 96 | 1009.0 |
| 20260506000211 | 49 | 194 | 7.0 | 0.0 | 0.00 | 0.00 | 0.00 | 96 | 1009.2 |
| 20260505233209 | 49 | 185 | 7.0 | 0.0 | 0.00 | 0.00 | 0.00 | 96 | 1009.4 |
| 20260505230209 | 49 | 200 | 5.0 | 0.0 | 0.00 | 0.00 | 0.00 | 95 | 1009.6 |
| 20260505223210 | 50 | 105 | 2.0 | 0.0 | 0.00 | 0.00 | 0.00 | 94 | 1009.7 |
| 20260505213211 | 51 | 169 | 5.0 | 0.0 | 0.00 | 0.00 | 0.04 | 93 | 1009.5 |
| 20260505210215 | 53 | 200 | 5.0 | 0.0 | 0.00 | 0.00 | 0.04 | 91 | 1009.5 |
| 20260505203209 | 53 | 240 | 8.0 | 0.0 | 0.00 | 0.00 | 0.04 | 89 | 1009.4 |
| 20260505200210 | 56 | 171 | 13.0 | 0.0 | 0.00 | 0.00 | 0.01 | 81 | 1009.5 |
| 20260505193209 | 59 | 256 | 17.0 | 0.0 | 0.00 | 0.00 | 0.01 | 76 | 1009.1 |
| 20260505190215 | 59 | 244 | 12.0 | 0.0 | 0.00 | 0.00 | 0.01 | 75 | 1008.4 |
| 20260505183212 | 59 | 215 | 7.0 | 0.0 | 0.00 | 0.00 | 0.01 | 76 | 1008.2 |
| 20260505180211 | 60 | 254 | 4.0 | 0.0 | 0.00 | 0.00 | 0.01 | 74 | 1007.7 |
| 20260505173210 | 60 | 306 | 4.0 | 0.0 | 0.00 | 0.00 | 0.01 | 75 | 1007.4 |
| 20260505170210 | 60 | 340 | 2.0 | 0.0 | 0.00 | 0.00 | 0.01 | 75 | 1006.9 |
| 20260505163211 | 60 | 59 | 4.0 | 0.0 | 0.00 | 0.00 | 0.01 | 74 | 1007.1 |
| 20260505153210 | 62 | 349 | 10.0 | 0.0 | 0.00 | 0.00 | 0.01 | 69 | 1007.3 |
| 20260505150216 | 62 | 347 | 10.0 | 0.0 | 0.00 | 0.00 | 0.01 | 73 | 1007.1 |
| 20260505140210 | 62 | 344 | 8.0 | 0.0 | 0.00 | 0.00 | 0.01 | 78 | 1007.2 |
| 20260505130210 | 60 | 325 | 10.0 | 0.0 | 0.00 | 0.00 | 0.01 | 87 | 1007.9 |
| 20260505123210 | 59 | 349 | 7.0 | 0.0 | 0.00 | 0.00 | 0.01 | 88 | 1008.1 |
| 20260505120210 | 61 | 286 | 11.0 | 0.0 | 0.00 | 0.00 | 0.00 | 82 | 1008.3 |
| 20260505113210 | 65 | 259 | 12.0 | 0.0 | 0.00 | 0.00 | 0.00 | 70 | 1008.0 |
| 20260505110211 | 66 | 318 | 9.0 | 0.0 | 0.00 | 0.00 | 0.00 | 65 | 1007.6 |
| 20260505100212 | 64 | 0 | 3.0 | 0.0 | 0.00 | 0.00 | 0.00 | 61 | 1007.7 |
| 20260505093212 | 66 | 276 | 3.0 | 0.0 | 0.00 | 0.00 | 0.00 | 62 | 1007.8 |